[[{"header":{"parameterUnit":"m.s-1","parameterCategory":1,"la1":30.2991,"la2":30.254,"lo1":-89.0895,"lo2":-89.0444,"dy":0.0017,"dx":0.0017,"nx":28,"ny":28,"refTime":"2025-11-16T09:00:00:Z","depth":0,"parameterNumber":2,"parameterNumberName":"U-component_of_WINDS"},"data":[0,0,0,0,0,0,0,0,0,0,0,0,0,0,0,0,0,0,0,0,0,0,0,0,0,0,0,0,0,0,0,0,0,0,0,0,0,0,0,0,0,0,0,0,0,0,0,0,0,0,0,0,0,0,0,0,0,0,-0.5868,-0.5867,0,-0.5825,-0.5825,-0.5824,-0.5787,-0.5787,-0.5786,-0.5786,-0.5743,-0.5742,-0.5741,0,0,0,0,0,0,0,0,0,0,0,0,0,-0.5918,-0.5917,-0.5868,-0.5867,-0.5867,-0.5825,-0.5825,-0.5824,-0.5787,-0.5787,-0.5786,-0.5786,-0.5743,-0.5742,-0.5741,0,0,0,0,0,0,0,0,0,0,0,0,0,-0.5888,-0.5917,-0.5868,-0.5843,-0.5841,-0.5825,-0.5825,-0.5824,-0.5787,-0.5787,-0.5786,-0.5786,-0.5743,-0.5742,-0.5741,-0.5747,0,0,-0.5738,-0.5737,0,0,0,0,0,0,0,0,-0.589,-0.5886,-0.5848,-0.5845,-0.5842,-0.5811,-0.5827,-0.5798,-0.5788,-0.5808,-0.5786,-0.5785,-0.5766,-0.5763,-0.5756,-0.5745,-0.5743,-0.5738,-0.5737,-0.5736,-0.5736,0,0,0,0,0,0,0,-0.5892,-0.5888,-0.5851,-0.5847,-0.5844,-0.5835,-0.583,-0.5821,-0.5791,-0.5806,-0.5803,-0.5799,-0.5764,-0.5758,-0.5755,-0.5742,-0.5738,-0.5737,-0.5736,-0.5736,-0.5733,-0.5734,0,0,0,0,0,0,-0.5898,-0.589,-0.5852,-0.585,-0.5865,-0.5834,-0.5829,-0.5822,-0.5791,-0.5786,-0.5799,-0.5797,-0.576,-0.5757,-0.5753,-0.5758,-0.5736,-0.5735,-0.5735,-0.5733,-0.5734,-0.5734,0,0,0,0,0,0,-0.5899,-0.5895,-0.5854,-0.5869,-0.5863,-0.5834,-0.5826,-0.5821,-0.5814,-0.5786,-0.578,-0.5798,-0.5759,-0.5755,-0.5749,-0.5756,-0.5735,-0.5734,-0.5732,-0.5733,-0.5734,-0.5768,0,0,0,0,0,0,-0.5901,-0.5895,-0.5897,-0.5869,-0.5862,-0.585,-0.5827,-0.5821,-0.5812,-0.5809,-0.5783,-0.5778,-0.5758,-0.5751,-0.5748,-0.5754,-0.5733,-0.5731,-0.5733,-0.5734,-0.5766,-0.577,-0.5773,0,0,0,0,0,-0.5902,-0.5908,-0.5897,-0.5893,-0.5864,-0.585,-0.5847,-0.5824,-0.5813,-0.5814,-0.5796,-0.5779,-0.5756,-0.575,-0.5747,-0.5753,-0.5731,-0.5732,-0.5734,-0.5764,-0.5769,-0.5773,0,0,0,0,0,0,-0.5938,-0.5904,-0.5892,-0.5889,-0.5873,-0.5844,-0.5845,-0.5829,-0.5816,-0.5814,-0.5786,-0.5781,-0.5778,-0.5765,-0.5759,-0.5757,-0.5741,-0.5742,-0.5766,-0.577,-0.5773,-0.5777,-0.5732,0,0,0,0,0,-0.5945,-0.5937,-0.5908,-0.5908,-0.5901,-0.5875,-0.5868,-0.5852,-0.5834,-0.5827,-0.5809,-0.5792,-0.5781,-0.5775,-0.5763,-0.5764,-0.5758,-0.5766,-0.577,-0.5773,-0.5774,-0.5774,-0.5777,-0.5739,-0.5739,-0.5739,0,0,-0.596,-0.5941,-0.5937,-0.5915,-0.59,-0.5893,-0.5869,-0.5862,-0.5856,-0.5826,-0.5819,-0.5805,-0.5785,-0.5782,-0.578,-0.5771,-0.5783,-0.5775,-0.5778,-0.5777,-0.5776,-0.5779,-0.5782,-0.574,-0.574,-0.574,0,0,-0.5984,-0.5968,-0.5967,-0.5953,-0.5932,-0.5914,-0.5914,-0.5888,-0.5878,-0.587,-0.5848,-0.5841,-0.5822,-0.5809,-0.58,-0.5819,-0.5803,-0.5816,-0.5835,-0.5835,-0.5838,-0.5841,-0.5848,-0.5851,-0.5818,-0.5818,-0.5818,0,-0.6006,-0.5993,-0.5968,-0.5962,-0.5953,-0.5926,-0.5924,-0.5912,-0.5888,-0.5883,-0.5873,-0.585,-0.5835,-0.5829,-0.5834,-0.5827,-0.5826,-0.5819,-0.584,-0.5842,-0.5844,-0.5851,-0.5853,-0.5819,-0.5819,-0.5819,-0.5819,0,-0.6021,-0.6012,-0.6014,-0.5991,-0.5982,-0.5979,-0.5954,-0.5948,-0.5932,-0.5916,-0.5909,-0.589,-0.5874,-0.5871,-0.5856,-0.5863,-0.5859,-0.5845,-0.5828,-0.585,-0.5856,-0.5858,-0.5822,-0.5821,-0.5821,-0.582,0,0,-0.6065,-0.6029,-0.603,-0.602,-0.5995,-0.5988,-0.5983,-0.5968,-0.5963,-0.5948,-0.5943,-0.5929,-0.5916,-0.5906,-0.5889,-0.5889,-0.5906,-0.5875,-0.5874,-0.5882,-0.5913,-0.5924,-0.5927,-0.5895,-0.5895,-0.5896,-0.5915,0,-0.6085,-0.6075,-0.6053,-0.605,-0.6042,-0.6016,-0.6012,-0.5996,-0.5981,-0.5972,-0.5955,-0.5946,-0.5929,-0.5923,-0.5922,-0.5904,-0.5912,-0.5903,-0.5891,-0.5891,-0.5897,-0.593,-0.5941,-0.596,-0.5917,-0.5917,-0.5917,0,-0.6107,-0.6093,-0.6089,-0.6064,-0.606,-0.6057,-0.6041,-0.6033,-0.6015,-0.6004,-0.5993,-0.5974,-0.5968,-0.5953,-0.5945,-0.5939,-0.5933,-0.5924,-0.5924,-0.5922,-0.5906,-0.5929,-0.5965,-0.5968,-0.5921,-0.592,-0.592,0,-0.614,-0.6121,-0.6116,-0.6108,-0.6079,-0.6077,-0.6065,-0.6046,-0.6038,-0.6025,-0.6019,-0.6005,-0.5998,-0.5987,-0.5966,-0.5956,-0.596,-0.5943,-0.5951,-0.5951,-0.5953,-0.5953,-0.5989,-0.5949,-0.5949,-0.5949,-0.5948,0,-0.6165,-0.6164,-0.613,-0.6128,-0.6125,-0.61,-0.6099,-0.6084,-0.6068,-0.6062,-0.6039,-0.6034,-0.6005,-0.5997,-0.598,-0.5976,-0.5973,-0.5964,-0.596,-0.5966,-0.5968,-0.5962,-0.596,-0.5949,-0.5949,-0.5949,-0.5949,0,-0.6202,-0.618,-0.6173,-0.6146,-0.6139,-0.6139,-0.6116,-0.6112,-0.6096,-0.6089,-0.6086,-0.606,-0.6049,-0.6026,-0.601,-0.5998,-0.5998,-0.599,-0.6004,-0.6002,-0.6011,-0.6011,-0.6045,-0.6048,-0.6006,-0.6007,-0.6007,0,-0.6219,-0.6218,-0.6191,-0.6185,-0.6174,-0.6165,-0.6157,-0.6132,-0.6124,-0.6104,-0.6103,-0.609,-0.6079,-0.6063,-0.6043,-0.603,-0.6021,-0.6034,-0.6019,-0.6026,-0.6022,-0.6022,-0.6022,-0.6038,-0.6038,-0.6039,-0.6039,0,-0.6253,-0.6242,-0.6231,-0.6216,-0.6207,-0.6194,-0.618,-0.6177,-0.6149,-0.6142,-0.6131,-0.6122,-0.6104,-0.6092,-0.6077,-0.6064,-0.6047,-0.6044,-0.6045,-0.6052,-0.6061,-0.6056,-0.6014,-0.6043,-0.6043,-0.6043,-0.6042,-0.6042,-0.628,-0.6278,-0.6259,-0.6247,-0.6234,-0.6222,-0.6217,-0.62,-0.619,-0.6174,-0.616,-0.615,-0.6132,-0.6109,-0.6098,-0.609,-0.6081,-0.6083,-0.6084,-0.6085,-0.6088,-0.6062,-0.6087,-0.6087,-0.6087,-0.6086,-0.6086,0,-0.6313,-0.6299,-0.6289,-0.627,-0.6262,-0.6246,-0.623,-0.6224,-0.6215,-0.62,-0.6189,-0.6176,-0.6164,-0.6143,-0.613,-0.6128,-0.6119,-0.6125,-0.6125,-0.6123,-0.6096,-0.6096,-0.6132,-0.6132,-0.6132,-0.6132,-0.6132,-0.6132,-0.6329,-0.6324,-0.6311,-0.6299,-0.6285,-0.6275,-0.6267,-0.6256,-0.6244,-0.623,-0.622,-0.6207,-0.6189,-0.6174,-0.6163,-0.6157,-0.6153,-0.6161,-0.6153,-0.6129,-0.6124,-0.612,-0.6121,-0.6161,-0.6161,-0.6181,-0.6181,-0.6181]},{"header":{"parameterUnit":"m.s-1","parameterCategory":1,"la1":30.2991,"la2":30.254,"lo1":-89.0895,"lo2":-89.0444,"dy":0.0017,"dx":0.0017,"nx":28,"ny":28,"refTime":"2025-11-16T09:00:00:Z","depth":0,"parameterNumber":3,"parameterNumberName":"V-component_of_WINDS"},"data":[0,0,0,0,0,0,0,0,0,0,0,0,0,0,0,0,0,0,0,0,0,0,0,0,0,0,0,0,0,0,0,0,0,0,0,0,0,0,0,0,0,0,0,0,0,0,0,0,0,0,0,0,0,0,0,0,0,0,2.0407,2.0407,0,2.0393,2.0393,2.0393,2.0344,2.0343,2.0342,2.0341,2.0327,2.0327,2.0328,0,0,0,0,0,0,0,0,0,0,0,0,0,2.0394,2.0394,2.0407,2.0407,2.0407,2.0393,2.0393,2.0393,2.0344,2.0343,2.0342,2.0341,2.0327,2.0327,2.0328,0,0,0,0,0,0,0,0,0,0,0,0,0,2.0392,2.0394,2.0407,2.0381,2.0379,2.0393,2.0393,2.0393,2.0345,2.0343,2.0341,2.034,2.0326,2.0327,2.0328,2.0367,0,0,2.0331,2.0331,0,0,0,0,0,0,0,0,2.0392,2.0392,2.0385,2.0383,2.038,2.0369,2.0383,2.0384,2.0345,2.0358,2.0341,2.0339,2.0342,2.0342,2.0342,2.0366,2.0365,2.0331,2.0332,2.0332,2.0332,0,0,0,0,0,0,0,2.0392,2.0392,2.0402,2.0385,2.0382,2.037,2.0368,2.0383,2.0359,2.0356,2.0353,2.0352,2.034,2.0342,2.0342,2.0365,2.0331,2.0332,2.0332,2.0333,2.0421,2.0422,0,0,0,0,0,0,2.0396,2.0393,2.0402,2.0401,2.0382,2.0372,2.037,2.0374,2.0359,2.0355,2.0353,2.035,2.0341,2.0341,2.0341,2.0386,2.0332,2.0333,2.0333,2.0419,2.0421,2.0423,0,0,0,0,0,0,2.0396,2.0397,2.0403,2.0396,2.0396,2.0374,2.0379,2.0375,2.0376,2.0356,2.0352,2.0359,2.034,2.034,2.0361,2.0385,2.0333,2.0334,2.0417,2.042,2.0422,2.0476,0,0,0,0,0,0,2.0395,2.0397,2.0411,2.0397,2.0396,2.0423,2.0381,2.0376,2.0378,2.0373,2.0361,2.0357,2.0338,2.036,2.0362,2.0385,2.0335,2.0415,2.0418,2.0421,2.0472,2.048,2.0487,0,0,0,0,0,2.0395,2.0427,2.0412,2.0414,2.0414,2.0424,2.0424,2.0402,2.038,2.0394,2.0382,2.0357,2.0382,2.0362,2.0364,2.0388,2.0413,2.0417,2.0421,2.0468,2.0478,2.0487,0,0,0,0,0,0,2.0444,2.0424,2.0408,2.0436,2.0432,2.0416,2.0433,2.0413,2.0415,2.041,2.0383,2.038,2.0406,2.0399,2.0378,2.0425,2.0393,2.0398,2.0429,2.0438,2.0445,2.0447,2.0336,0,0,0,0,0,2.0459,2.0469,2.045,2.0477,2.0476,2.0455,2.0459,2.0442,2.0437,2.0435,2.0424,2.042,2.0427,2.0432,2.0437,2.047,2.0468,2.0488,2.0495,2.0502,2.0506,2.0524,2.0533,2.0436,2.0436,2.0436,0,0,2.0488,2.0478,2.0486,2.0486,2.0481,2.0493,2.0454,2.0467,2.0475,2.0437,2.0456,2.0448,2.0442,2.047,2.0482,2.0465,2.0532,2.0507,2.0512,2.0513,2.0529,2.0539,2.0547,2.0439,2.0438,2.0438,0,0,2.0547,2.054,2.0562,2.0558,2.0551,2.0537,2.0543,2.053,2.0523,2.0542,2.0514,2.0524,2.0536,2.0533,2.0533,2.0593,2.0571,2.0595,2.0635,2.0653,2.066,2.0667,2.0689,2.0697,2.06,2.06,2.06,0,2.0584,2.06,2.0576,2.0591,2.0593,2.0559,2.0581,2.0578,2.0574,2.0576,2.0557,2.0573,2.0566,2.0593,2.0608,2.0609,2.0615,2.0596,2.0661,2.0668,2.0674,2.0694,2.0703,2.0603,2.0602,2.0602,2.0602,0,2.0646,2.0658,2.0676,2.0673,2.0677,2.0695,2.0675,2.0681,2.0665,2.0653,2.0674,2.0665,2.0668,2.0673,2.0657,2.0698,2.0688,2.0666,2.0634,2.0686,2.0705,2.0713,2.0607,2.0606,2.0605,2.0604,0,0,2.0735,2.072,2.0727,2.0725,2.0716,2.0725,2.0742,2.0746,2.0752,2.0751,2.0765,2.0777,2.0757,2.0757,2.074,2.0756,2.0805,2.0732,2.0731,2.0746,2.0851,2.0868,2.0878,2.079,2.0792,2.0793,2.0852,0,2.0792,2.0821,2.0801,2.0834,2.0845,2.0813,2.0829,2.0825,2.0815,2.0823,2.0812,2.0821,2.0793,2.0793,2.0807,2.0796,2.0826,2.0791,2.0804,2.0805,2.0807,2.0887,2.0905,2.0961,2.0859,2.086,2.0861,0,2.0862,2.0864,2.0898,2.0888,2.0892,2.0906,2.0908,2.0916,2.0911,2.0903,2.0904,2.0883,2.0901,2.0869,2.0893,2.087,2.0874,2.0869,2.0871,2.0871,2.0836,2.0891,2.0979,2.0987,2.0872,2.0871,2.0871,0,2.0924,2.0936,2.0958,2.0957,2.0946,2.0957,2.0952,2.0946,2.095,2.0952,2.0954,2.0958,2.096,2.0964,2.0945,2.0924,2.0972,2.0938,2.0966,2.0967,2.0978,2.0977,2.1068,2.098,2.098,2.0979,2.0979,0,2.099,2.1012,2.0986,2.1,2.1024,2.1001,2.1026,2.1018,2.1013,2.1025,2.0998,2.101,2.0984,2.0994,2.0979,2.1002,2.1003,2.0997,2.0993,2.0999,2.1,2.1002,2.0998,2.0982,2.0981,2.0981,2.098,0,2.1064,2.1047,2.1069,2.1057,2.1054,2.1073,2.1062,2.1074,2.1063,2.1079,2.1081,2.1063,2.1073,2.1054,2.1062,2.1052,2.1084,2.1073,2.1086,2.1083,2.1112,2.1109,2.1207,2.1219,2.1123,2.1124,2.1124,0,2.1107,2.1124,2.1113,2.112,2.1117,2.1127,2.1131,2.1109,2.1114,2.1111,2.1124,2.1132,2.1137,2.1154,2.1142,2.1148,2.1138,2.1171,2.1138,2.1145,2.1139,2.1138,2.114,2.1178,2.118,2.118,2.1181,0,2.1186,2.1177,2.1184,2.1188,2.1194,2.1196,2.1197,2.1203,2.118,2.1187,2.1197,2.1201,2.1209,2.1218,2.1221,2.1216,2.1195,2.1192,2.1199,2.1206,2.1213,2.121,2.1105,2.119,2.1189,2.1188,2.1188,2.1187,2.1246,2.126,2.1255,2.1264,2.1262,2.1263,2.1275,2.1265,2.1273,2.1278,2.1264,2.1278,2.1274,2.1276,2.1274,2.1285,2.1269,2.1279,2.1282,2.1285,2.129,2.1211,2.1285,2.1285,2.1284,2.1284,2.1284,0,2.1324,2.132,2.1328,2.133,2.1337,2.1317,2.1317,2.1324,2.1337,2.1335,2.134,2.1353,2.1361,2.135,2.1356,2.1366,2.1357,2.1369,2.1368,2.1368,2.1302,2.1296,2.1377,2.1377,2.1377,2.1376,2.1376,2.1376,2.1365,2.1388,2.1379,2.1401,2.1396,2.1409,2.1411,2.1412,2.1411,2.1426,2.1433,2.1425,2.142,2.1426,2.1433,2.1429,2.1433,2.1449,2.1442,2.1381,2.1372,2.1364,2.1358,2.145,2.145,2.1507,2.1507,2.1508]}]]